EW1713 Weather Reports


time (UTC)temp
C
wind
direction
speed
KPH
gust
KPH
rain 1hr
cm
rain 24hr
cm
rain mn
cm
humidity
%
barometer
mb
20260505124556 5 13 12.9 20.9 0.00 1.04 0.03 86 1011.8
20260505123055 5 13 11.3 20.9 0.00 1.04 0.03 85 1011.6
20260505121542 5 13 17.7 24.1 0.00 1.04 0.03 85 1011.8
20260505120101 5 13 16.1 25.7 0.00 1.04 0.03 84 1011.8
20260505114545 5 13 16.1 25.7 0.00 1.04 0.03 84 1011.7
20260505113047 5 13 19.3 30.6 0.00 1.04 0.03 84 1011.6
20260505111544 5 13 20.9 27.4 0.00 1.04 0.03 84 1011.6
20260505101542 5 13 24.1 32.2 0.00 1.04 0.03 84 1011.9
20260505100045 5 13 20.9 29.0 0.00 1.04 0.03 84 1011.9
20260505094542 5 13 19.3 32.2 0.00 1.04 0.03 84 1011.9
20260505093043 5 13 27.4 38.6 0.00 1.04 0.03 84 1011.9
20260505091540 5 13 25.7 33.8 0.00 1.04 0.03 86 1011.9
20260505090044 5 13 27.4 38.6 0.00 1.04 0.03 85 1012.1
20260505084545 5 13 22.5 30.6 0.00 1.04 0.03 84 1012.2
20260505083048 6 13 22.5 32.2 0.03 1.04 0.03 84 1012.5
20260505081541 5 13 27.4 35.4 0.03 1.04 0.03 84 1012.7
20260505080042 5 13 22.5 32.2 0.03 1.04 0.03 86 1012.9
20260505074541 5 13 22.5 30.6 0.03 1.04 0.03 86 1012.5
20260505073054 5 13 12.9 19.3 0.00 1.02 0.00 90 1013.2
20260505071552 5 13 11.3 29.0 0.00 1.02 0.00 84 1013.1
20260505070046 5 13 19.3 27.4 0.00 1.02 0.00 84 1012.5
20260505064544 5 360 19.3 48.3 0.00 1.02 1.02 83 1012.6
20260505063041 5 13 25.7 38.6 0.00 1.02 1.02 82 1011.8
20260505061552 5 13 22.5 40.2 0.00 1.02 1.02 83 1011.9
20260505060045 5 13 29.0 40.2 0.00 1.02 1.02 84 1011.8
20260505054605 5 13 24.1 38.6 0.00 1.02 1.02 85 1012.0
20260505053057 5 13 27.4 38.6 0.00 1.02 1.02 86 1012.6
20260505051541 5 13 29.0 43.5 0.00 1.02 1.02 85 1012.8
20260505041541 5 13 27.4 38.6 0.15 1.02 1.02 89 1012.5
20260505040042 5 13 17.7 25.7 0.15 0.99 0.99 88 1012.9
20260505034539 5 13 19.3 32.2 0.15 0.97 0.97 88 1012.7
20260505033047 5 13 25.7 40.2 0.13 0.94 0.94 86 1012.4
20260505031557 5 13 30.6 45.1 0.05 0.86 0.86 85 1012.2
20260505030042 5 13 20.9 33.8 0.08 0.84 0.84 85 1012.4
20260505024542 5 13 20.9 38.6 0.15 0.81 0.81 84 1013.1
20260505023049 5 13 25.7 37.0 0.33 0.81 0.81 86 1012.7
20260505021545 5 13 33.8 45.1 0.48 0.81 0.81 86 1012.1
20260505020045 5 13 32.2 51.5 0.53 0.76 0.76 87 1012.2
20260505014544 6 14 27.4 37.0 0.51 0.64 0.64 92 1012.9
20260505013045 6 14 20.9 33.8 0.33 0.46 0.46 86 1013.6
20260505011541 6 14 17.7 35.4 0.20 0.33 0.33 84 1012.9
20260505010046 7 13 20.9 32.2 0.10 0.23 0.23 80 1012.0
20260505004552 7 13 22.5 43.5 0.00 0.13 0.13 74 1012.1
20260505003043 8 360 29.0 48.3 0.00 0.13 0.13 73 1011.9
20260505001541 8 11 33.8 54.7 0.00 0.13 0.13 71 1011.6
20260505000057 10 9 29.0 45.1 0.00 0.13 0.13 67 1011.4
20260504234541 10 9 29.0 49.9 0.00 0.15 0.13 66 1011.4
20260504233043 11 9 27.4 49.9 0.00 0.15 0.13 64 1011.4
20260504231545 10 9 27.4 43.5 0.00 0.15 0.13 67 1011.2
20260504230100 10 9 27.4 41.8 0.00 0.15 0.13 68 1011.5
20260504224541 10 9 22.5 38.6 0.00 0.23 0.13 69 1011.8
20260504223041 10 11 22.5 38.6 0.00 0.23 0.13 69 1011.9
20260504221554 11 9 25.7 41.8 0.00 0.23 0.13 66 1011.8
20260504220042 11 15 22.5 46.7 0.00 0.23 0.13 69 1011.8
20260504214542 11 9 29.0 46.7 0.00 0.23 0.13 68 1011.7
20260504213046 11 9 20.9 35.4 0.03 0.23 0.13 70 1012.2
20260504211545 10 9 20.9 37.0 0.08 0.23 0.13 77 1012.3
20260504210047 9 5 20.9 37.0 0.08 0.23 0.13 81 1012.3
20260504204543 9 9 17.7 27.4 0.08 0.23 0.13 80 1012.6
20260504203052 9 9 9.7 17.7 0.05 0.20 0.10 75 1012.5
20260504201543 9 11 12.9 27.4 0.00 0.15 0.05 73 1012.1
20260504200047 10 9 14.5 27.4 0.00 0.15 0.05 69 1012.4
20260504194544 10 9 17.7 27.4 0.00 0.15 0.05 68 1012.4
20260504193042 10 9 17.7 29.0 0.00 0.15 0.05 69 1012.4
20260504191543 10 9 19.3 32.2 0.00 0.15 0.05 68 1012.7
20260504190041 11 9 19.3 32.2 0.00 0.15 0.05 67 1012.7
20260504184542 11 9 19.3 30.6 0.00 0.15 0.05 69 1012.9
20260504183041 10 11 19.3 29.0 0.00 0.15 0.05 74 1012.9
20260504181545 9 9 17.7 27.4 0.00 0.15 0.05 77 1013.0
20260504180042 9 13 20.9 29.0 0.00 0.15 0.05 77 1013.2
20260504174542 8 9 19.3 29.0 0.00 0.15 0.05 78 1013.1
20260504173042 8 9 17.7 25.7 0.00 0.15 0.05 78 1013.3
20260504171542 8 9 16.1 20.9 0.03 0.15 0.05 81 1013.2